• In United Kingdom
  • List of Countries
  • For 7 days
  • Water Temperature
  • Satellite Maps
  • Weather Map
  • Weather Widgets
  • user-avatar
    Login

    Hourly Weather Fier

    Today, 24 June, Saturday

    Time Temperature Precipitation Wind Pressure Humidity
    00:00 +20°C° 0 mm 0 mps 761 mmHg 72%
    01:00 +20°C° 0 mm 0 mps 761 mmHg 72%
    02:00 +19°C° 0 mm 0 mps 761 mmHg 73%
    03:00 +21°C° 0 mm 1 mps 761 mmHg 74%
    04:00 +21°C° 0 mm 1 mps 761 mmHg 75%
    05:00 +24°C° 0 mm 1 mps 761 mmHg 65%
    06:00 +27°C° 0 mm 1 mps 761 mmHg 55%
    07:00 +29°C° 0 mm 1 mps 761 mmHg 46%
    08:00 +31°C° 0 mm 1 mps 761 mmHg 42%
    09:00 +34°C° 0 mm 2 mps 761 mmHg 37%
    10:00 +35°C° 0 mm 2 mps 761 mmHg 33%
    11:00 +36°C° 0 mm 3 mps 760 mmHg 32%
    12:00 +36°C° 0 mm 3 mps 760 mmHg 31%
    13:00 +37°C° 0 mm 4 mps 760 mmHg 30%
    14:00 +36°C° 0 mm 4 mps 760 mmHg 33%
    15:00 +36°C° 0 mm 4 mps 759 mmHg 35%
    16:00 +35°C° 0 mm 4 mps 759 mmHg 38%
    17:00 +31°C° 0 mm 3 mps 759 mmHg 47%
    18:00 +29°C° 0 mm 2 mps 759 mmHg 56%
    19:00 +27°C° 0 mm 2 mps 759 mmHg 64%
    20:00 +26°C° 0 mm 1 mps 760 mmHg 66%
    21:00 +25°C° 0 mm 1 mps 760 mmHg 68%
    22:00 +24°C° 0 mm 1 mps 760 mmHg 70%
    23:00 +24°C° 0 mm 1 mps 760 mmHg 70%

    Tomorrow, 25 June, Sunday

    Time Temperature Precipitation Wind Pressure Humidity
    00:00 +24°C° 0 mm 1 mps 760 mmHg 71%
    01:00 +24°C° 0 mm 1 mps 760 mmHg 72%
    02:00 +23°C° 0 mm 1 mps 760 mmHg 72%
    03:00 +23°C° 0 mm 1 mps 760 mmHg 73%
    04:00 +23°C° 0 mm 1 mps 760 mmHg 74%
    05:00 +25°C° 0 mm 1 mps 760 mmHg 66%
    06:00 +28°C° 0 mm 1 mps 760 mmHg 59%
    07:00 +30°C° 0 mm 1 mps 760 mmHg 51%
    08:00 +32°C° 0 mm 1 mps 760 mmHg 46%
    09:00 +34°C° 0 mm 1 mps 759 mmHg 41%
    10:00 +36°C° 0 mm 1 mps 759 mmHg 36%
    11:00 +37°C° 0.2 mm 2 mps 759 mmHg 35%
    12:00 +37°C° 0.2 mm 2 mps 759 mmHg 35%
    13:00 +37°C° 0.2 mm 3 mps 758 mmHg 35%
    14:00 +36°C° 0.1 mm 3 mps 758 mmHg 37%
    15:00 +36°C° 0.1 mm 3 mps 758 mmHg 39%
    16:00 +35°C° 0.1 mm 2 mps 757 mmHg 42%
    17:00 +32°C° 0 mm 2 mps 757 mmHg 50%
    18:00 +29°C° 0 mm 1 mps 758 mmHg 58%
    19:00 +27°C° 0 mm 1 mps 758 mmHg 66%
    20:00 +26°C° 0 mm 1 mps 758 mmHg 67%
    21:00 +25°C° 0 mm 1 mps 758 mmHg 68%
    22:00 +24°C° 0 mm 1 mps 758 mmHg 69%
    23:00 +24°C° 0 mm 1 mps 758 mmHg 71%

    Day after tomorrow, 26 June, Monday

    Time Temperature Precipitation Wind Pressure Humidity
    00:00 +23°C° 0 mm 1 mps 758 mmHg 73%
    01:00 +21°C° 0 mm 0 mps 758 mmHg 75%
    02:00 +23°C° 0 mm 1 mps 758 mmHg 76%
    03:00 +22°C° 0 mm 1 mps 757 mmHg 77%
    04:00 +22°C° 0 mm 1 mps 757 mmHg 78%
    05:00 +25°C° 0 mm 1 mps 758 mmHg 68%
    06:00 +26°C° 0 mm 0 mps 758 mmHg 58%
    07:00 +28°C° 0 mm 0 mps 758 mmHg 47%
    08:00 +32°C° 0 mm 1 mps 758 mmHg 42%
    09:00 +33°C° 0 mm 1 mps 758 mmHg 38%
    10:00 +36°C° 0 mm 2 mps 758 mmHg 33%
    11:00 +36°C° 0 mm 2 mps 758 mmHg 32%
    12:00 +37°C° 0 mm 3 mps 757 mmHg 31%
    13:00 +37°C° 0 mm 3 mps 757 mmHg 30%
    14:00 +36°C° 0 mm 3 mps 757 mmHg 32%
    15:00 +36°C° 0 mm 3 mps 757 mmHg 34%
    16:00 +35°C° 0 mm 3 mps 757 mmHg 36%
    17:00 +32°C° 0 mm 2 mps 757 mmHg 45%
    18:00 +29°C° 0 mm 2 mps 757 mmHg 54%
    19:00 +27°C° 0 mm 1 mps 758 mmHg 63%
    20:00 +26°C° 0 mm 1 mps 758 mmHg 66%
    21:00 +24°C° 0 mm 1 mps 758 mmHg 69%
    22:00 +21°C° 0 mm 0 mps 758 mmHg 72%
    23:00 +23°C° 0 mm 1 mps 758 mmHg 73%

    27 June, Tuesday

    Time Temperature Precipitation Wind Pressure Humidity
    00:00 +23°C° 0 mm 1 mps 759 mmHg 73%
    01:00 +23°C° 0 mm 1 mps 759 mmHg 74%
    02:00 +22°C° 0 mm 1 mps 758 mmHg 75%
    03:00 +22°C° 0 mm 1 mps 758 mmHg 77%
    04:00 +22°C° 0 mm 1 mps 758 mmHg 78%
    05:00 +25°C° 0 mm 1 mps 759 mmHg 69%
    06:00 +28°C° 0 mm 1 mps 759 mmHg 59%
    07:00 +30°C° 0 mm 1 mps 759 mmHg 49%
    08:00 +32°C° 0 mm 1 mps 759 mmHg 45%
    09:00 +34°C° 0 mm 1 mps 759 mmHg 40%
    10:00 +36°C° 0 mm 2 mps 759 mmHg 36%
    11:00 +37°C° 0.1 mm 2 mps 759 mmHg 35%
    12:00 +37°C° 0.1 mm 3 mps 758 mmHg 34%
    13:00 +37°C° 0.1 mm 3 mps 758 mmHg 33%
    14:00 +37°C° 0 mm 3 mps 758 mmHg 34%
    15:00 +36°C° 0 mm 3 mps 758 mmHg 35%
    16:00 +36°C° 0 mm 2 mps 758 mmHg 37%
    17:00 +32°C° 0 mm 2 mps 758 mmHg 46%
    18:00 +29°C° 0 mm 1 mps 758 mmHg 56%
    19:00 +27°C° 0 mm 1 mps 758 mmHg 66%
    20:00 +26°C° 0 mm 1 mps 758 mmHg 69%
    21:00 +25°C° 0 mm 1 mps 759 mmHg 71%
    22:00 +24°C° 0 mm 1 mps 759 mmHg 74%
    23:00 +23°C° 0 mm 1 mps 759 mmHg 75%

    28 June, Wednesday

    Time Temperature Precipitation Wind Pressure Humidity
    00:00 +23°C° 0 mm 1 mps 759 mmHg 77%
    01:00 +23°C° 0 mm 1 mps 758 mmHg 78%
    02:00 +22°C° 0 mm 1 mps 758 mmHg 78%
    03:00 +22°C° 0 mm 1 mps 758 mmHg 78%
    04:00 +22°C° 0 mm 1 mps 758 mmHg 78%
    05:00 +25°C° 0 mm 1 mps 758 mmHg 66%
    06:00 +28°C° 0 mm 1 mps 758 mmHg 54%
    07:00 +31°C° 0 mm 2 mps 758 mmHg 43%
    08:00 +32°C° 0 mm 2 mps 758 mmHg 39%
    09:00 +35°C° 0 mm 2 mps 758 mmHg 34%
    10:00 +36°C° 0 mm 3 mps 758 mmHg 30%
    11:00 +37°C° 0 mm 3 mps 758 mmHg 30%
    12:00 +37°C° 0 mm 4 mps 758 mmHg 30%
    13:00 +38°C° 0 mm 4 mps 757 mmHg 30%
    14:00 +37°C° 0 mm 4 mps 757 mmHg 32%
    15:00 +37°C° 0 mm 4 mps 757 mmHg 33%
    16:00 +36°C° 0 mm 4 mps 757 mmHg 35%
    17:00 +34°C° 0 mm 3 mps 757 mmHg 43%
    18:00 +30°C° 0 mm 3 mps 757 mmHg 52%
    19:00 +28°C° 0 mm 3 mps 757 mmHg 61%
    20:00 +26°C° 0 mm 2 mps 758 mmHg 62%
    21:00 +25°C° 0 mm 2 mps 758 mmHg 64%
    22:00 +24°C° 0 mm 2 mps 758 mmHg 66%
    23:00 +24°C° 0 mm 2 mps 758 mmHg 68%

    29 June, Thursday

    Time Temperature Precipitation Wind Pressure Humidity
    00:00 +24°C° 0 mm 2 mps 758 mmHg 70%
    01:00 +24°C° 0 mm 2 mps 758 mmHg 72%
    02:00 +23°C° 0 mm 2 mps 757 mmHg 72%
    03:00 +23°C° 0 mm 2 mps 757 mmHg 72%
    04:00 +23°C° 0 mm 2 mps 757 mmHg 72%
    05:00 +26°C° 0 mm 2 mps 758 mmHg 62%
    06:00 +29°C° 0 mm 2 mps 758 mmHg 53%
    07:00 +31°C° 0 mm 2 mps 758 mmHg 43%
    08:00 +34°C° 0 mm 2 mps 758 mmHg 38%
    09:00 +36°C° 0 mm 3 mps 758 mmHg 33%
    10:00 +37°C° 0 mm 3 mps 758 mmHg 28%
    11:00 +38°C° 0 mm 3 mps 758 mmHg 27%
    12:00 +40°C° 0 mm 4 mps 757 mmHg 26%
    13:00 +40°C° 0 mm 5 mps 757 mmHg 25%
    14:00 +40°C° 0 mm 5 mps 757 mmHg 27%
    15:00 +39°C° 0 mm 5 mps 757 mmHg 30%
    16:00 +37°C° 0 mm 5 mps 757 mmHg 32%
    17:00 +34°C° 0 mm 5 mps 757 mmHg 41%
    18:00 +32°C° 0 mm 4 mps 757 mmHg 51%
    19:00 +28°C° 0 mm 4 mps 757 mmHg 60%
    20:00 +27°C° 0 mm 4 mps 757 mmHg 60%
    21:00 +27°C° 0 mm 3 mps 758 mmHg 60%
    22:00 +26°C° 0 mm 3 mps 758 mmHg 60%
    23:00 +26°C° 0 mm 3 mps 758 mmHg 59%
    Show more